When you browse on this site, cookies collect data to enhance your experience and personalize the content and advertising you see.
Visit our Privacy Policy to learn more. By continuing to use the site, you agree to this use of cookies and data.
  • In Romania
  • List of Countries
  • For 7 days
  • Water Temperature
  • Satellite Maps
  • Weather Map
  • Weather Widgets
  • user-avatar
    Login

    Hourly Weather Leicester

    Today, 26 June, Wednesday

    Time Temperature Precipitation Wind Pressure Humidity
    00:00 +13°C° 0 mm 3 mps 763 mmHg 97%
    01:00 +13°C° 0.1 mm 3 mps 763 mmHg 97%
    02:00 +13°C° 0.1 mm 4 mps 763 mmHg 97%
    03:00 +13°C° 0.1 mm 4 mps 763 mmHg 97%
    04:00 +13°C° 0 mm 4 mps 763 mmHg 96%
    05:00 +13°C° 0 mm 4 mps 764 mmHg 96%
    06:00 +13°C° 0 mm 4 mps 764 mmHg 96%
    07:00 +13°C° 0 mm 5 mps 764 mmHg 94%
    08:00 +13°C° 0 mm 5 mps 765 mmHg 93%
    09:00 +14°C° 0 mm 5 mps 765 mmHg 92%
    10:00 +14°C° 0 mm 5 mps 765 mmHg 90%
    11:00 +15°C° 0 mm 5 mps 766 mmHg 87%
    12:00 +17°C° 0 mm 4 mps 766 mmHg 85%
    13:00 +16°C° 0 mm 5 mps 766 mmHg 85%
    14:00 +16°C° 0 mm 5 mps 766 mmHg 84%
    15:00 +16°C° 0 mm 6 mps 766 mmHg 84%
    16:00 +16°C° 0 mm 6 mps 766 mmHg 84%
    17:00 +16°C° 0 mm 5 mps 766 mmHg 85%
    18:00 +15°C° 0 mm 5 mps 766 mmHg 86%
    19:00 +14°C° 0 mm 5 mps 766 mmHg 88%
    20:00 +13°C° 0 mm 4 mps 766 mmHg 90%
    21:00 +11°C° 0 mm 4 mps 767 mmHg 92%
    22:00 +11°C° 0 mm 4 mps 767 mmHg 93%
    23:00 +10°C° 0 mm 3 mps 767 mmHg 94%

    Tomorrow, 27 June, Thursday

    Time Temperature Precipitation Wind Pressure Humidity
    00:00 +9°C° 0 mm 3 mps 767 mmHg 95%
    01:00 +9°C° 0 mm 3 mps 767 mmHg 95%
    02:00 +9°C° 0 mm 3 mps 767 mmHg 95%
    03:00 +8°C° 0 mm 3 mps 767 mmHg 95%
    04:00 +9°C° 0 mm 3 mps 767 mmHg 92%
    05:00 +10°C° 0 mm 4 mps 767 mmHg 89%
    06:00 +11°C° 0 mm 4 mps 767 mmHg 87%
    07:00 +12°C° 0 mm 4 mps 767 mmHg 84%
    08:00 +14°C° 0 mm 5 mps 767 mmHg 82%
    09:00 +16°C° 0 mm 5 mps 767 mmHg 79%
    10:00 +17°C° 0 mm 5 mps 767 mmHg 77%
    11:00 +19°C° 0 mm 5 mps 767 mmHg 76%
    12:00 +20°C° 0 mm 6 mps 767 mmHg 74%
    13:00 +20°C° 0 mm 6 mps 767 mmHg 74%
    14:00 +20°C° 0 mm 6 mps 766 mmHg 74%
    15:00 +21°C° 0 mm 6 mps 766 mmHg 73%
    16:00 +20°C° 0 mm 6 mps 766 mmHg 75%
    17:00 +19°C° 0 mm 5 mps 765 mmHg 77%
    18:00 +17°C° 0 mm 5 mps 765 mmHg 79%
    19:00 +15°C° 0 mm 5 mps 765 mmHg 83%
    20:00 +14°C° 0 mm 5 mps 765 mmHg 87%
    21:00 +12°C° 0 mm 5 mps 765 mmHg 91%
    22:00 +11°C° 0 mm 4 mps 765 mmHg 92%
    23:00 +11°C° 0 mm 4 mps 765 mmHg 94%

    Day after tomorrow, 28 June, Friday

    Time Temperature Precipitation Wind Pressure Humidity
    00:00 +10°C° 0 mm 4 mps 765 mmHg 95%
    01:00 +10°C° 0 mm 4 mps 765 mmHg 95%
    02:00 +10°C° 0 mm 4 mps 765 mmHg 96%
    03:00 +10°C° 0 mm 4 mps 764 mmHg 97%
    04:00 +10°C° 0 mm 4 mps 764 mmHg 95%
    05:00 +11°C° 0 mm 4 mps 764 mmHg 94%
    06:00 +12°C° 0 mm 5 mps 764 mmHg 92%
    07:00 +13°C° 0 mm 5 mps 763 mmHg 88%
    08:00 +15°C° 0 mm 5 mps 763 mmHg 84%
    09:00 +17°C° 0 mm 5 mps 763 mmHg 81%
    10:00 +19°C° 0 mm 5 mps 763 mmHg 79%
    11:00 +20°C° 0 mm 5 mps 762 mmHg 77%
    12:00 +21°C° 0 mm 5 mps 762 mmHg 75%
    13:00 +22°C° 0 mm 6 mps 762 mmHg 75%
    14:00 +22°C° 0 mm 6 mps 761 mmHg 75%
    15:00 +22°C° 0 mm 6 mps 761 mmHg 74%
    16:00 +22°C° 0 mm 5 mps 761 mmHg 76%
    17:00 +21°C° 0 mm 5 mps 760 mmHg 78%
    18:00 +20°C° 0 mm 5 mps 760 mmHg 80%
    19:00 +19°C° 0 mm 5 mps 760 mmHg 81%
    20:00 +16°C° 0 mm 5 mps 760 mmHg 83%
    21:00 +14°C° 0 mm 4 mps 760 mmHg 85%
    22:00 +13°C° 0 mm 4 mps 760 mmHg 86%
    23:00 +13°C° 0 mm 4 mps 759 mmHg 86%

    29 June, Saturday

    Time Temperature Precipitation Wind Pressure Humidity
    00:00 +12°C° 0 mm 3 mps 759 mmHg 87%
    01:00 +11°C° 0 mm 3 mps 759 mmHg 89%
    02:00 +11°C° 0 mm 3 mps 758 mmHg 91%
    03:00 +10°C° 0 mm 2 mps 758 mmHg 92%
    04:00 +12°C° 0 mm 3 mps 757 mmHg 92%
    05:00 +13°C° 0 mm 3 mps 757 mmHg 91%
    06:00 +14°C° 0 mm 3 mps 757 mmHg 90%
    07:00 +17°C° 0 mm 3 mps 756 mmHg 87%
    08:00 +19°C° 0 mm 4 mps 756 mmHg 84%
    09:00 +21°C° 0 mm 4 mps 756 mmHg 81%
    10:00 +22°C° 0 mm 4 mps 755 mmHg 79%
    11:00 +25°C° 0 mm 4 mps 755 mmHg 76%
    12:00 +26°C° 0 mm 4 mps 754 mmHg 73%
    13:00 +27°C° 0 mm 4 mps 754 mmHg 73%
    14:00 +27°C° 0 mm 4 mps 754 mmHg 72%
    15:00 +28°C° 0 mm 5 mps 753 mmHg 72%
    16:00 +27°C° 0 mm 4 mps 753 mmHg 76%
    17:00 +26°C° 0 mm 4 mps 752 mmHg 80%
    18:00 +25°C° 0 mm 4 mps 752 mmHg 84%
    19:00 +23°C° 0 mm 4 mps 752 mmHg 86%
    20:00 +21°C° 0 mm 4 mps 753 mmHg 88%
    21:00 +20°C° 0 mm 4 mps 753 mmHg 90%
    22:00 +18°C° 0 mm 4 mps 753 mmHg 91%
    23:00 +15°C° 0 mm 4 mps 753 mmHg 91%

    30 June, Sunday

    Time Temperature Precipitation Wind Pressure Humidity
    00:00 +14°C° 0 mm 4 mps 753 mmHg 92%
    01:00 +13°C° 0 mm 4 mps 753 mmHg 93%
    02:00 +13°C° 0 mm 4 mps 753 mmHg 93%
    03:00 +12°C° 0 mm 3 mps 753 mmHg 94%
    04:00 +13°C° 0 mm 4 mps 754 mmHg 91%
    05:00 +14°C° 0 mm 4 mps 754 mmHg 88%
    06:00 +15°C° 0 mm 4 mps 754 mmHg 85%
    07:00 +15°C° 0 mm 5 mps 754 mmHg 83%
    08:00 +16°C° 0 mm 5 mps 755 mmHg 81%
    09:00 +17°C° 0 mm 5 mps 755 mmHg 78%
    10:00 +19°C° 0 mm 5 mps 755 mmHg 77%
    11:00 +19°C° 0 mm 6 mps 755 mmHg 76%
    12:00 +20°C° 0 mm 6 mps 755 mmHg 75%
    13:00 +20°C° 0 mm 6 mps 755 mmHg 73%
    14:00 +21°C° 0 mm 6 mps 755 mmHg 71%
    15:00 +22°C° 0 mm 6 mps 755 mmHg 69%
    16:00 +21°C° 0 mm 5 mps 755 mmHg 72%
    17:00 +20°C° 0 mm 5 mps 755 mmHg 75%
    18:00 +20°C° 0 mm 4 mps 755 mmHg 78%
    19:00 +18°C° 0 mm 4 mps 755 mmHg 81%
    20:00 +17°C° 0 mm 4 mps 756 mmHg 83%
    21:00 +14°C° 0 mm 4 mps 756 mmHg 86%
    22:00 +14°C° 0 mm 3 mps 756 mmHg 88%
    23:00 +13°C° 0 mm 3 mps 756 mmHg 90%

    1 July, Monday

    Time Temperature Precipitation Wind Pressure Humidity
    00:00 +12°C° 0 mm 3 mps 756 mmHg 93%
    01:00 +12°C° 0 mm 3 mps 756 mmHg 92%
    02:00 +11°C° 0 mm 3 mps 756 mmHg 91%
    03:00 +10°C° 0 mm 3 mps 756 mmHg 90%
    04:00 +11°C° 0 mm 4 mps 757 mmHg 88%
    05:00 +11°C° 0 mm 4 mps 757 mmHg 86%
    06:00 +12°C° 0 mm 5 mps 757 mmHg 83%
    07:00 +13°C° 0 mm 5 mps 757 mmHg 79%
    08:00 +14°C° 0 mm 6 mps 757 mmHg 75%
    09:00 +15°C° 0 mm 6 mps 758 mmHg 72%
    10:00 +15°C° 0 mm 6 mps 758 mmHg 71%
    11:00 +15°C° 0 mm 6 mps 758 mmHg 71%
    12:00 +15°C° 0 mm 6 mps 758 mmHg 70%
    13:00 +16°C° 0 mm 6 mps 758 mmHg 69%
    14:00 +17°C° 0 mm 7 mps 758 mmHg 68%
    15:00 +17°C° 0 mm 7 mps 758 mmHg 67%
    16:00 +17°C° 0 mm 6 mps 758 mmHg 69%
    17:00 +16°C° 0 mm 6 mps 759 mmHg 72%
    18:00 +16°C° 0 mm 5 mps 759 mmHg 74%
    19:00 +14°C° 0 mm 5 mps 759 mmHg 76%
    20:00 +13°C° 0 mm 4 mps 760 mmHg 79%
    21:00 +11°C° 0 mm 4 mps 760 mmHg 82%
    22:00 +11°C° 0 mm 3 mps 761 mmHg 82%
    23:00 +10°C° 0 mm 3 mps 761 mmHg 83%
    Show more